Location: Unspecified
(51.0950°N, 12.9690°E)
Time: 14:55:41
(UTC+00:00)

Cosmos 1943 Rocket - Pass Details

Date: 28 October 2021
Orbit: 811 x 845 km, 71.0° (Epoch: 26 November)

Event Time Altitude Azimuth Distance (km) Brightness Sun altitude
Rises 19:08:44 0° 331° (NNW) 3,417 6.0 -31.6°
Reaches altitude 10° 19:11:17 10° 337° (NNW) 2,477 5.1 -32.0°
Enters shadow 19:14:24 31° 356° (N) 1,454 3.5 -32.4°
